SCP
0 -0 -1 -1 -0 -0 0 -0 -1 -1 -1 -1 -1 -1 -1 -0 -1 -1 -0 -0 -0 -0 -0 -0 -0 -0 -0 0 0 -0 -0 0 0 0 0 0 0 0 0 0 0 0 0
-0 -0 -1 -1 -0 -0 -0 -0 -1 -1 -1 -1 -1 -1 -1 -1 -1 -0 -0 -0 -0 -0 -0 -0 -0 -0 -0 0 0 -0 -0 0 0 0 0 0 0 0 0 0 0 0 0
-0 -1 -1 -1 -0 -0 -0 -0 -0 -0 -1 -1 -1 -1 -1 -1 -1 -0 -0 -0 -0 -0 -0 -0 -0 -0 0 0 0 0 0 0 0 0 0 0 0 0 0 0 0 0 0
0 -0 -1 -1 -0 -0 -0 -0 -0 -0 -0 -0 -1 -0 -0 -0 -0 -0 -0 -0 -0 -0 -0 -0 -0 0 0 0 0 0 0 0 0 0 0 0 0 0 0 0 0 0 0
0 0 0 0 -0 -0 -0 -0 -0 -0 -0 -0 -0 -0 -0 -0 -0 -0 -0 -0 -0 -0 -0 -0 0 0 0 0 0 0 0 0 0 0 0 0 0 0 0 0 0 0 0
0 0 0 1 0 0 0 0 0 0 -0 -0 -0 -0 0 0 0 0 0 -0 -0 -0 -0 0 0 0 0 0 0 0 0 0 0 0 0 0 0 0 0 0 0 0 0
0 0 0 1 0 0 0 0 0 0 0 0 0 0 0 0 0 0 0 0 0 0 0 0 0 0 0 0 0 0 0 0 0 0 0 0 0 0 0 0 1 1 0
1 0 1 1 1 1 1 0 0 0 0 0 0 0 0 0 0 0 0 0 0 0 0 0 0 0 0 0 0 0 0 0 0 0 0 0 0 0 0 1 1 0 1
1 0 0 0 0 1 1 1 1 1 0 0 0 0 0 0 0 0 0 0 0 0 0 0 0 0 0 0 0 0 0 0 0 0 0 0 0 1 1 0 1 1 1
1 1 1 1 0 0 1 1 1 1 1 1 1 0 0 0 0 0 0 0 0 0 0 0 0 0 0 0 0 0 0 0 0 0 0 0 0 0 0 1 1 0 0
1 1 1 1 1 1 1 1 1 1 1 1 1 1 0 0 0 0 0 0 0 0 0 0 0 0 0 0 0 0 0 0 0 0 0 0 0 0 1 0 0 0 0
1 2 2 1 1 1 1 1 1 1 1 1 1 1 0 0 0 0 0 0 0 0 0 0 0 0 0 0 0 0 0 0 0 0 0 0 0 0 0 0 0 0 0
0 2 2 2 2 2 1 1 1 1 1 1 1 1 1 1 0 0 0 0 0 0 0 0 0 0 0 0 0 0 0 0 0 0 0 0 0 0 0 0 0 0 0
0 0 1 2 2 2 2 2 2 1 1 1 1 1 1 1 0 0 0 0 0 0 0 0 0 0 0 0 0 0 0 0 0 0 0 0 0 1 0 0 0 0 0
0 0 0 0 2 3 2 3 2 2 1 1 1 1 1 1 1 0 0 0 0 0 0 0 0 0 0 0 0 0 0 0 0 0 0 0 1 1 0 0 0 0 0
0 0 0 0 1 3 3 3 3 3 2 1 1 1 1 1 1 0 0 0 0 0 0 0 0 0 0 0 0 0 0 0 0 0 0 1 1 0 0 0 0 0 0
0 0 0 0 0 1 3 3 3 3 2 2 1 1 1 1 1 0 1 0 0 0 0 0 0 0 0 0 0 0 0 0 0 0 0 1 1 0 0 0 0 0 0
0 0 0 0 0 1 2 3 4 3 3 2 2 2 1 1 1 1 1 0 0 1 0 0 0 0 0 0 0 0 0 0 1 0 0 0 0 0 0 0 0 0 0
0 0 0 0 0 1 2 2 2 4 3 3 2 2 1 1 1 1 1 1 1 0 0 0 0 0 0 1 1 1 1 1 1 0 0 0 0 0 0 0 0 0 0
0 0 -0 0 0 0 1 2 3 3 2 3 2 2 1 1 1 1 1 1 1 1 0 0 0 1 1 1 1 1 1 1 1 1 0 0 0 0 0 0 0 0 0
0 0 0 0 0 0 2 3 4 3 2 2 2 2 1 1 1 1 1 1 0 0 0 1 1 1 1 1 1 1 0 0 0 0 0 0 0 0 0 0 0 0 0
0 0 0 0 0 0 0 2 4 3 2 2 2 2 2 1 1 1 0 1 0 1 1 0 1 0 1 1 1 2 1 0 0 0 0 0 0 0 0 0 0 0 0
0 0 0 0 0 0 0 2 4 3 3 3 3 2 2 1 1 0 0 0 1 1 1 1 1 1 1 1 1 2 1 0 0 0 0 0 0 0 0 0 0 0 0
0 0 0 0 0 0 0 0 1 2 2 1 1 1 1 0 -0 -0 0 1 1 1 1 1 1 2 2 2 1 0 0 0 0 0 0 0 0 0 0 0 0 0 0
0 0 0 0 0 0 0 0 1 1 1 1 1 1 1 0 0 0 -0 0 1 1 1 1 2 1 1 0 0 0 0 0 0 0 0 0 0 0 0 0 0 0 0
0 0 0 0 0 0 0 0 0 1 2 1 1 1 1 1 0 0 0 0 0 0 0 1 1 1 2 2 1 0 0 0 0 0 0 0 0 0 0 0 0 0 0
Wind_Speed_500mb
28 28 28 29 31 29 26 20 16 14 12 14 20 25 24 19 17 19 22 25 24 28 31 29 26 26 25 24 18 13 8 7 8 11 13 16 16 15 14 15 16 17 14
22 30 30 30 31 27 23 22 20 16 14 14 19 25 25 22 20 22 22 24 23 28 30 26 22 22 23 19 14 11 9 7 9 13 15 15 12 10 9 7 9 9 8
9 34 34 31 31 28 25 23 21 17 13 12 16 22 23 22 23 23 22 22 23 28 29 24 21 19 17 16 13 12 10 10 12 15 17 14 8 9 7 5 1 2 5
6 33 38 34 32 28 25 22 20 17 12 12 14 19 21 21 22 22 22 22 23 26 28 23 21 16 14 13 11 11 12 13 14 17 20 16 11 8 11 11 9 7 10
4 19 37 32 30 27 24 21 19 17 15 13 12 14 18 20 22 22 23 22 23 24 26 24 21 16 14 12 11 12 13 15 16 19 23 22 19 13 11 14 16 14 14
6 19 27 27 25 24 23 21 20 18 17 15 14 13 16 20 22 24 23 22 23 24 25 25 21 19 18 15 15 15 15 17 17 20 25 27 24 18 15 16 19 19 19
7 14 27 27 24 23 23 22 20 19 19 17 16 15 15 18 21 24 24 24 24 25 25 23 21 20 20 19 19 18 19 20 21 22 24 29 31 26 22 21 20 20 21
4 5 24 29 27 26 26 24 23 22 22 21 19 18 17 18 22 24 26 26 26 26 26 24 23 23 22 22 23 22 22 22 22 23 23 24 27 27 26 23 19 18 21
8 9 17 30 31 30 29 28 28 26 26 25 22 22 21 21 23 25 27 28 29 29 28 26 25 25 25 25 25 24 23 23 22 22 19 19 18 15 14 12 10 14 23
10 14 16 21 31 33 32 31 31 31 30 29 27 25 24 23 24 27 29 31 31 32 31 28 27 25 26 26 26 26 25 22 21 19 16 11 10 11 10 7 13 21 30
20 16 18 20 23 31 35 35 35 36 36 35 33 31 29 29 29 31 33 32 33 34 35 33 30 28 28 28 27 26 24 20 19 18 17 16 15 15 12 15 18 27 34
21 24 26 24 23 26 29 34 37 39 41 42 40 37 35 34 34 33 34 35 36 36 36 37 35 32 30 30 29 28 25 22 20 21 20 20 18 16 14 18 21 28 30
21 23 27 32 32 34 34 34 35 38 43 45 45 44 42 40 38 37 37 37 39 38 39 39 38 36 34 34 32 31 28 24 21 22 25 21 16 14 17 21 26 29 23
26 23 30 34 37 41 41 39 39 40 40 45 47 49 50 46 43 39 40 39 38 40 41 39 40 40 38 36 35 32 30 26 22 20 19 16 16 18 20 21 23 23 22
34 34 33 38 43 44 47 46 42 41 42 41 43 47 52 51 45 42 41 40 39 42 40 41 41 41 42 39 37 33 29 27 27 25 20 20 19 21 20 22 24 22 22
41 39 42 37 40 48 48 50 45 42 38 38 40 44 45 49 45 44 43 42 43 43 41 40 42 43 44 42 38 34 30 29 29 28 26 25 26 22 23 23 24 24 23
42 41 41 39 45 49 48 56 56 46 42 39 38 39 40 41 43 41 44 46 47 45 42 41 41 43 45 42 41 37 35 31 29 30 32 28 28 28 25 25 25 25 25
43 43 45 46 43 53 47 49 58 52 46 38 35 32 36 41 45 44 48 48 48 49 44 43 41 39 38 35 33 36 37 35 33 29 34 31 34 31 29 27 28 26 29
48 56 54 53 51 50 58 57 57 55 47 48 42 37 34 36 40 41 37 45 48 49 47 48 46 42 36 33 32 37 38 36 33 34 36 37 37 36 35 27 27 31 35
40 47 62 69 63 54 56 58 54 49 49 52 48 49 45 38 38 39 40 33 37 48 49 50 54 45 42 34 30 28 33 35 35 35 36 41 43 38 35 33 32 33 36
48 51 59 65 64 60 57 58 49 54 57 60 56 50 47 40 41 41 40 40 42 44 48 53 56 56 48 44 36 36 38 39 40 39 41 40 40 42 42 43 36 29 39
53 55 60 52 60 64 61 61 60 58 60 50 50 48 43 41 41 47 47 49 48 48 51 54 58 60 55 43 43 36 24 29 34 38 41 38 38 39 40 39 38 37 36
65 56 45 42 44 56 52 59 64 59 60 55 47 40 38 36 31 38 49 54 55 54 58 52 62 64 50 44 53 39 21 27 21 31 31 31 32 32 34 34 33 33 32
74 69 48 27 25 36 41 50 53 53 37 35 30 33 25 18 33 49 50 48 54 53 57 60 53 66 74 68 59 58 58 39 16 17 25 28 31 32 34 32 27 26 28
62 74 68 42 11 16 29 40 43 30 17 34 35 29 22 27 42 38 39 42 49 57 54 52 50 57 67 76 67 64 57 61 48 38 23 29 32 30 30 28 26 25 29
56 62 70 63 34 6 14 24 22 29 31 41 43 35 34 38 38 36 39 41 40 46 55 49 48 55 57 61 70 72 70 65 58 40 26 27 30 29 30 27 22 28 28
Wind_Direction_500mb
185 188 185 187 185 183 181 185 207 215 214 199 196 190 183 188 197 176 167 167 164 165 166 164 164 165 169 173 174 179 185 178 166 156 145 135 131 123 107 89 71 62 54
200 194 194 192 192 189 188 204 220 220 220 213 206 199 199 198 197 184 175 172 173 174 174 175 171 168 173 180 184 198 194 189 186 175 163 154 149 149 133 109 72 70 43
228 199 199 195 197 196 203 209 217 224 218 213 203 201 202 201 195 191 182 180 180 181 182 179 173 173 185 193 195 205 215 214 205 192 184 177 193 208 201 194 196 14 353
258 208 209 196 200 203 211 212 215 222 223 209 201 203 205 204 198 195 192 188 187 186 187 185 181 179 182 193 208 220 226 224 220 210 205 207 210 230 235 237 250 278 308
316 183 191 197 201 205 211 219 222 222 223 219 214 205 205 204 203 204 199 197 196 193 192 198 201 199 205 214 224 230 231 232 231 225 222 224 226 244 256 251 255 259 284
30 194 196 204 209 210 217 224 226 226 228 226 222 217 212 209 205 206 209 209 205 202 202 209 214 218 221 230 234 236 240 243 243 238 236 234 237 247 262 277 256 254 280
17 209 208 212 216 219 228 231 232 233 233 233 231 227 224 220 216 214 216 218 216 214 215 220 224 224 219 231 240 242 245 247 249 250 249 245 247 250 259 278 262 262 287
345 255 224 221 221 225 230 235 239 239 240 239 238 238 237 232 229 225 224 226 225 224 223 225 229 226 227 235 241 244 246 248 253 254 255 253 251 251 260 273 270 277 287
298 268 241 232 229 232 236 239 241 240 240 241 242 241 239 235 233 232 229 229 230 229 228 228 229 232 232 234 239 244 248 252 253 255 256 256 247 243 252 264 271 286 300
299 282 274 250 242 241 245 246 246 245 244 243 243 242 242 241 239 238 236 233 231 231 230 231 232 233 233 235 239 246 256 258 254 249 255 250 242 254 245 244 288 301 299
294 279 265 265 256 254 253 254 251 247 243 243 243 243 239 240 241 241 240 239 237 236 234 234 234 238 244 244 246 250 253 255 251 251 259 255 262 245 240 261 298 299 302
299 285 280 259 257 262 262 264 261 256 250 246 244 244 244 246 245 245 245 243 242 241 239 238 238 241 248 251 253 252 250 253 256 257 259 263 255 233 253 285 296 300 303
283 276 270 267 269 266 266 263 263 263 258 251 249 248 248 247 248 248 250 248 247 247 246 244 241 243 246 253 255 254 251 253 255 262 261 261 237 240 281 300 303 299 294
291 285 275 274 269 265 268 260 262 265 261 259 256 252 249 249 253 252 254 255 253 252 252 249 247 244 247 252 254 254 247 250 256 260 255 245 230 262 278 294 290 293 293
301 296 280 274 271 264 256 258 264 263 265 264 264 261 254 254 257 257 259 261 258 256 256 254 251 247 248 249 252 249 246 257 254 253 261 247 257 271 275 285 288 287 289
292 289 294 275 263 259 255 254 261 257 263 266 266 261 253 255 259 263 262 261 259 260 258 255 252 250 247 248 246 246 251 260 257 253 261 256 256 272 262 281 278 281 285
291 280 282 288 260 246 267 253 257 257 258 259 259 260 257 257 257 261 259 260 257 258 259 256 250 250 250 250 244 248 251 260 259 256 259 246 255 261 255 268 273 277 287
293 288 273 275 274 252 251 253 256 254 256 256 256 259 260 261 264 266 263 264 265 258 255 253 247 247 251 250 242 246 251 256 255 259 260 244 252 254 252 266 265 267 277
289 283 279 272 272 263 255 254 248 247 249 253 260 261 268 271 273 271 276 265 259 259 252 247 244 243 244 245 249 252 254 251 258 262 250 245 247 255 253 251 266 270 268
318 297 281 271 266 269 254 254 245 245 251 253 252 256 265 267 270 272 280 275 270 256 254 247 242 242 240 240 251 247 247 246 259 262 256 253 256 242 244 254 260 255 260
317 309 296 276 259 257 254 247 232 238 244 248 256 259 261 269 272 276 277 276 274 267 259 247 242 240 243 240 246 242 249 255 260 255 249 246 247 254 247 255 247 241 258
343 325 304 271 259 249 247 242 235 236 244 244 251 255 255 268 268 270 272 272 267 263 261 247 241 237 241 237 235 234 234 243 240 236 237 240 242 242 247 245 247 241 251
8 346 315 289 270 239 240 234 235 238 245 243 249 250 249 250 268 292 284 271 262 251 252 256 244 237 237 239 237 232 238 239 203 223 229 236 235 238 238 241 241 243 250
17 10 352 316 259 237 232 227 233 238 239 263 248 228 227 270 312 305 288 277 261 257 252 255 248 242 236 237 235 234 235 241 205 195 215 228 232 230 229 236 234 241 253
16 19 16 359 304 244 236 231 232 225 197 259 236 228 253 284 289 295 297 287 271 262 262 257 256 251 239 241 239 235 232 242 242 228 205 213 223 222 224 229 231 250 260
12 17 20 18 2 341 222 197 202 194 222 246 239 244 263 269 279 292 300 304 291 279 268 261 256 253 246 241 236 234 235 230 228 218 199 203 212 216 225 231 243 259 274
Wind_Speed_850mb
28 28 28 29 31 29 26 20 16 14 12 14 20 25 24 19 17 19 22 25 24 28 31 29 26 26 25 24 18 13 8 7 8 11 13 16 16 15 14 15 16 17 14
22 30 30 30 31 27 23 22 20 16 14 14 19 25 25 22 20 22 22 24 23 28 30 26 22 22 23 19 14 11 9 7 9 13 15 15 12 10 9 7 9 9 8
9 34 34 31 31 28 25 23 21 17 13 12 16 22 23 22 23 23 22 22 23 28 29 24 21 19 17 16 13 12 10 10 12 15 17 14 8 9 7 5 1 2 5
6 33 38 34 32 28 25 22 20 17 12 12 14 19 21 21 22 22 22 22 23 26 28 23 21 16 14 13 11 11 12 13 14 17 20 16 11 8 11 11 9 7 10
4 19 37 32 30 27 24 21 19 17 15 13 12 14 18 20 22 22 23 22 23 24 26 24 21 16 14 12 11 12 13 15 16 19 23 22 19 13 11 14 16 14 14
6 19 27 27 25 24 23 21 20 18 17 15 14 13 16 20 22 24 23 22 23 24 25 25 21 19 18 15 15 15 15 17 17 20 25 27 24 18 15 16 19 19 19
7 14 27 27 24 23 23 22 20 19 19 17 16 15 15 18 21 24 24 24 24 25 25 23 21 20 20 19 19 18 19 20 21 22 24 29 31 26 22 21 20 20 21
4 5 24 29 27 26 26 24 23 22 22 21 19 18 17 18 22 24 26 26 26 26 26 24 23 23 22 22 23 22 22 22 22 23 23 24 27 27 26 23 19 18 21
8 9 17 30 31 30 29 28 28 26 26 25 22 22 21 21 23 25 27 28 29 29 28 26 25 25 25 25 25 24 23 23 22 22 19 19 18 15 14 12 10 14 23
10 14 16 21 31 33 32 31 31 31 30 29 27 25 24 23 24 27 29 31 31 32 31 28 27 25 26 26 26 26 25 22 21 19 16 11 10 11 10 7 13 21 30
20 16 18 20 23 31 35 35 35 36 36 35 33 31 29 29 29 31 33 32 33 34 35 33 30 28 28 28 27 26 24 20 19 18 17 16 15 15 12 15 18 27 34
21 24 26 24 23 26 29 34 37 39 41 42 40 37 35 34 34 33 34 35 36 36 36 37 35 32 30 30 29 28 25 22 20 21 20 20 18 16 14 18 21 28 30
21 23 27 32 32 34 34 34 35 38 43 45 45 44 42 40 38 37 37 37 39 38 39 39 38 36 34 34 32 31 28 24 21 22 25 21 16 14 17 21 26 29 23
26 23 30 34 37 41 41 39 39 40 40 45 47 49 50 46 43 39 40 39 38 40 41 39 40 40 38 36 35 32 30 26 22 20 19 16 16 18 20 21 23 23 22
34 34 33 38 43 44 47 46 42 41 42 41 43 47 52 51 45 42 41 40 39 42 40 41 41 41 42 39 37 33 29 27 27 25 20 20 19 21 20 22 24 22 22
41 39 42 37 40 48 48 50 45 42 38 38 40 44 45 49 45 44 43 42 43 43 41 40 42 43 44 42 38 34 30 29 29 28 26 25 26 22 23 23 24 24 23
42 41 41 39 45 49 48 56 56 46 42 39 38 39 40 41 43 41 44 46 47 45 42 41 41 43 45 42 41 37 35 31 29 30 32 28 28 28 25 25 25 25 25
43 43 45 46 43 53 47 49 58 52 46 38 35 32 36 41 45 44 48 48 48 49 44 43 41 39 38 35 33 36 37 35 33 29 34 31 34 31 29 27 28 26 29
48 56 54 53 51 50 58 57 57 55 47 48 42 37 34 36 40 41 37 45 48 49 47 48 46 42 36 33 32 37 38 36 33 34 36 37 37 36 35 27 27 31 35
40 47 62 69 63 54 56 58 54 49 49 52 48 49 45 38 38 39 40 33 37 48 49 50 54 45 42 34 30 28 33 35 35 35 36 41 43 38 35 33 32 33 36
48 51 59 65 64 60 57 58 49 54 57 60 56 50 47 40 41 41 40 40 42 44 48 53 56 56 48 44 36 36 38 39 40 39 41 40 40 42 42 43 36 29 39
53 55 60 52 60 64 61 61 60 58 60 50 50 48 43 41 41 47 47 49 48 48 51 54 58 60 55 43 43 36 24 29 34 38 41 38 38 39 40 39 38 37 36
65 56 45 42 44 56 52 59 64 59 60 55 47 40 38 36 31 38 49 54 55 54 58 52 62 64 50 44 53 39 21 27 21 31 31 31 32 32 34 34 33 33 32
74 69 48 27 25 36 41 50 53 53 37 35 30 33 25 18 33 49 50 48 54 53 57 60 53 66 74 68 59 58 58 39 16 17 25 28 31 32 34 32 27 26 28
62 74 68 42 11 16 29 40 43 30 17 34 35 29 22 27 42 38 39 42 49 57 54 52 50 57 67 76 67 64 57 61 48 38 23 29 32 30 30 28 26 25 29
56 62 70 63 34 6 14 24 22 29 31 41 43 35 34 38 38 36 39 41 40 46 55 49 48 55 57 61 70 72 70 65 58 40 26 27 30 29 30 27 22 28 28
Wind_Direction_850mb
185 188 185 187 185 183 181 185 207 215 214 199 196 190 183 188 197 176 167 167 164 165 166 164 164 165 169 173 174 179 185 178 166 156 145 135 131 123 107 89 71 62 54
200 194 194 192 192 189 188 204 220 220 220 213 206 199 199 198 197 184 175 172 173 174 174 175 171 168 173 180 184 198 194 189 186 175 163 154 149 149 133 109 72 70 43
228 199 199 195 197 196 203 209 217 224 218 213 203 201 202 201 195 191 182 180 180 181 182 179 173 173 185 193 195 205 215 214 205 192 184 177 193 208 201 194 196 14 353
258 208 209 196 200 203 211 212 215 222 223 209 201 203 205 204 198 195 192 188 187 186 187 185 181 179 182 193 208 220 226 224 220 210 205 207 210 230 235 237 250 278 308
316 183 191 197 201 205 211 219 222 222 223 219 214 205 205 204 203 204 199 197 196 193 192 198 201 199 205 214 224 230 231 232 231 225 222 224 226 244 256 251 255 259 284
30 194 196 204 209 210 217 224 226 226 228 226 222 217 212 209 205 206 209 209 205 202 202 209 214 218 221 230 234 236 240 243 243 238 236 234 237 247 262 277 256 254 280
17 209 208 212 216 219 228 231 232 233 233 233 231 227 224 220 216 214 216 218 216 214 215 220 224 224 219 231 240 242 245 247 249 250 249 245 247 250 259 278 262 262 287
345 255 224 221 221 225 230 235 239 239 240 239 238 238 237 232 229 225 224 226 225 224 223 225 229 226 227 235 241 244 246 248 253 254 255 253 251 251 260 273 270 277 287
298 268 241 232 229 232 236 239 241 240 240 241 242 241 239 235 233 232 229 229 230 229 228 228 229 232 232 234 239 244 248 252 253 255 256 256 247 243 252 264 271 286 300
299 282 274 250 242 241 245 246 246 245 244 243 243 242 242 241 239 238 236 233 231 231 230 231 232 233 233 235 239 246 256 258 254 249 255 250 242 254 245 244 288 301 299
294 279 265 265 256 254 253 254 251 247 243 243 243 243 239 240 241 241 240 239 237 236 234 234 234 238 244 244 246 250 253 255 251 251 259 255 262 245 240 261 298 299 302
299 285 280 259 257 262 262 264 261 256 250 246 244 244 244 246 245 245 245 243 242 241 239 238 238 241 248 251 253 252 250 253 256 257 259 263 255 233 253 285 296 300 303
283 276 270 267 269 266 266 263 263 263 258 251 249 248 248 247 248 248 250 248 247 247 246 244 241 243 246 253 255 254 251 253 255 262 261 261 237 240 281 300 303 299 294
291 285 275 274 269 265 268 260 262 265 261 259 256 252 249 249 253 252 254 255 253 252 252 249 247 244 247 252 254 254 247 250 256 260 255 245 230 262 278 294 290 293 293
301 296 280 274 271 264 256 258 264 263 265 264 264 261 254 254 257 257 259 261 258 256 256 254 251 247 248 249 252 249 246 257 254 253 261 247 257 271 275 285 288 287 289
292 289 294 275 263 259 255 254 261 257 263 266 266 261 253 255 259 263 262 261 259 260 258 255 252 250 247 248 246 246 251 260 257 253 261 256 256 272 262 281 278 281 285
291 280 282 288 260 246 267 253 257 257 258 259 259 260 257 257 257 261 259 260 257 258 259 256 250 250 250 250 244 248 251 260 259 256 259 246 255 261 255 268 273 277 287
293 288 273 275 274 252 251 253 256 254 256 256 256 259 260 261 264 266 263 264 265 258 255 253 247 247 251 250 242 246 251 256 255 259 260 244 252 254 252 266 265 267 277
289 283 279 272 272 263 255 254 248 247 249 253 260 261 268 271 273 271 276 265 259 259 252 247 244 243 244 245 249 252 254 251 258 262 250 245 247 255 253 251 266 270 268
318 297 281 271 266 269 254 254 245 245 251 253 252 256 265 267 270 272 280 275 270 256 254 247 242 242 240 240 251 247 247 246 259 262 256 253 256 242 244 254 260 255 260
317 309 296 276 259 257 254 247 232 238 244 248 256 259 261 269 272 276 277 276 274 267 259 247 242 240 243 240 246 242 249 255 260 255 249 246 247 254 247 255 247 241 258
343 325 304 271 259 249 247 242 235 236 244 244 251 255 255 268 268 270 272 272 267 263 261 247 241 237 241 237 235 234 234 243 240 236 237 240 242 242 247 245 247 241 251
8 346 315 289 270 239 240 234 235 238 245 243 249 250 249 250 268 292 284 271 262 251 252 256 244 237 237 239 237 232 238 239 203 223 229 236 235 238 238 241 241 243 250
17 10 352 316 259 237 232 227 233 238 239 263 248 228 227 270 312 305 288 277 261 257 252 255 248 242 236 237 235 234 235 241 205 195 215 228 232 230 229 236 234 241 253
16 19 16 359 304 244 236 231 232 225 197 259 236 228 253 284 289 295 297 287 271 262 262 257 256 251 239 241 239 235 232 242 242 228 205 213 223 222 224 229 231 250 260
12 17 20 18 2 341 222 197 202 194 222 246 239 244 263 269 279 292 300 304 291 279 268 261 256 253 246 241 236 234 235 230 228 218 199 203 212 216 225 231 243 259 274